| time (UTC) | temp C | wind direction | speed KPH | gust KPH | rain 1hr cm | rain 24hr cm | rain mn cm | humidity % | barometer mb |
| 20260508043018 | 5 | 306 | 3.2 | 12.9 | 0.00 | 0.15 | 0.15 | 58 | 1021.0 |
| 20260508041515 | 5 | 306 | 8.0 | 16.1 | 0.00 | 0.15 | 0.15 | 57 | 1020.9 |
| 20260508040015 | 5 | 304 | 4.8 | 12.9 | 0.00 | 0.15 | 0.15 | 56 | 1020.8 |
| 20260508034515 | 5 | 296 | 9.7 | 24.1 | 0.00 | 0.15 | 0.15 | 56 | 1020.7 |
| 20260508033014 | 5 | 293 | 8.0 | 20.9 | 0.00 | 0.15 | 0.15 | 56 | 1020.6 |
| 20260508031515 | 6 | 294 | 12.9 | 25.7 | 0.00 | 0.15 | 0.15 | 55 | 1020.5 |
| 20260508030009 | 6 | 294 | 12.9 | 24.1 | 0.00 | 0.15 | 0.15 | 54 | 1020.4 |
| 20260508024510 | 6 | 281 | 16.1 | 25.7 | 0.00 | 0.15 | 0.15 | 52 | 1020.3 |
| 20260508023056 | 7 | 309 | 14.5 | 40.2 | 0.00 | 0.15 | 0.15 | 50 | 1020.1 |
| 20260508021556 | 7 | 337 | 12.9 | 29.0 | 0.00 | 0.15 | 0.15 | 49 | 1020.0 |
| 20260508020056 | 7 | 302 | 12.9 | 37.0 | 0.00 | 0.18 | 0.15 | 49 | 1019.8 |
| 20260508014555 | 7 | 311 | 12.9 | 37.0 | 0.00 | 0.18 | 0.15 | 49 | 1019.6 |
| 20260508013054 | 7 | 284 | 9.7 | 19.3 | 0.00 | 0.18 | 0.15 | 47 | 1019.6 |
| 20260508011605 | 7 | 293 | 19.3 | 32.2 | 0.00 | 0.18 | 0.15 | 46 | 1019.5 |
| 20260508010054 | 7 | 292 | 8.0 | 30.6 | 0.00 | 0.20 | 0.15 | 46 | 1019.3 |
| 20260508004555 | 8 | 267 | 12.9 | 27.4 | 0.00 | 0.20 | 0.15 | 46 | 1019.3 |
| 20260508003052 | 8 | 274 | 17.7 | 30.6 | 0.00 | 0.20 | 0.15 | 46 | 1019.2 |
| 20260508001552 | 8 | 269 | 9.7 | 20.9 | 0.00 | 0.20 | 0.15 | 47 | 1019.3 |
| 20260508000053 | 7 | 296 | 16.1 | 24.1 | 0.00 | 0.36 | 0.15 | 48 | 1019.5 |
| 20260507234600 | 8 | 281 | 14.5 | 29.0 | 0.00 | 0.36 | 0.15 | 47 | 1019.3 |
| 20260507233048 | 10 | 294 | 11.3 | 19.3 | 0.00 | 0.36 | 0.15 | 47 | 1019.4 |
| 20260507231551 | 9 | 286 | 9.7 | 20.9 | 0.00 | 0.36 | 0.15 | 49 | 1019.6 |
| 20260507230050 | 8 | 296 | 9.7 | 25.7 | 0.00 | 0.48 | 0.15 | 51 | 1019.6 |
| 20260507224548 | 10 | 297 | 11.3 | 27.4 | 0.00 | 0.48 | 0.15 | 46 | 1019.8 |
| 20260507223042 | 8 | 291 | 9.7 | 22.5 | 0.00 | 0.48 | 0.15 | 52 | 1019.9 |
| 20260507221541 | 8 | 283 | 9.7 | 19.3 | 0.00 | 0.48 | 0.15 | 51 | 1019.9 |
| 20260507220038 | 8 | 277 | 9.7 | 27.4 | 0.00 | 0.66 | 0.15 | 50 | 1020.1 |
| 20260507214537 | 9 | 298 | 14.5 | 30.6 | 0.00 | 0.66 | 0.15 | 48 | 1020.3 |
| 20260507213035 | 10 | 350 | 12.9 | 24.1 | 0.00 | 0.66 | 0.15 | 50 | 1020.4 |
| 20260507211535 | 9 | 298 | 14.5 | 24.1 | 0.00 | 0.66 | 0.15 | 51 | 1020.6 |
| 20260507210034 | 9 | 328 | 16.1 | 24.1 | 0.00 | 0.94 | 0.15 | 48 | 1020.5 |
| 20260507204530 | 8 | 298 | 14.5 | 29.0 | 0.00 | 0.94 | 0.15 | 49 | 1020.8 |
| 20260507203029 | 8 | 293 | 14.5 | 27.4 | 0.00 | 0.94 | 0.15 | 47 | 1020.8 |
| 20260507201527 | 8 | 295 | 14.5 | 32.2 | 0.00 | 0.94 | 0.15 | 48 | 1020.8 |
| 20260507200034 | 8 | 295 | 17.7 | 32.2 | 0.00 | 1.17 | 0.15 | 48 | 1020.8 |
| 20260507194522 | 7 | 297 | 14.5 | 27.4 | 0.00 | 1.17 | 0.15 | 47 | 1021.0 |
| 20260507193020 | 7 | 317 | 11.3 | 27.4 | 0.00 | 1.17 | 0.15 | 49 | 1021.0 |
| 20260507191519 | 7 | 338 | 12.9 | 24.1 | 0.00 | 1.17 | 0.15 | 49 | 1021.0 |
| 20260507190020 | 7 | 309 | 8.0 | 19.3 | 0.00 | 1.22 | 0.15 | 50 | 1021.3 |
| 20260507184515 | 7 | 342 | 6.4 | 19.3 | 0.03 | 1.22 | 0.15 | 49 | 1021.3 |
| 20260507183029 | 7 | 322 | 6.4 | 17.7 | 0.03 | 1.22 | 0.15 | 50 | 1021.5 |
| 20260507181511 | 7 | 305 | 8.0 | 27.4 | 0.03 | 1.22 | 0.15 | 53 | 1021.5 |
| 20260507180009 | 6 | 291 | 9.7 | 29.0 | 0.05 | 1.24 | 0.15 | 55 | 1021.5 |
| 20260507174510 | 5 | 317 | 8.0 | 22.5 | 0.03 | 1.22 | 0.13 | 59 | 1021.4 |
| 20260507173006 | 6 | 320 | 8.0 | 33.8 | 0.08 | 1.22 | 0.13 | 59 | 1021.4 |
| 20260507171504 | 6 | 345 | 6.4 | 25.7 | 0.10 | 1.22 | 0.13 | 57 | 1021.5 |
| 20260507170002 | 6 | 26 | 1.6 | 19.3 | 0.10 | 1.19 | 0.10 | 53 | 1021.6 |
| 20260507164612 | 5 | 300 | 4.8 | 8.0 | 0.10 | 1.19 | 0.10 | 55 | 1021.6 |
| 20260507163056 | 5 | 298 | 3.2 | 8.0 | 0.05 | 1.14 | 0.05 | 54 | 1021.8 |
| 20260507161600 | 3 | 298 | 3.2 | 6.4 | 0.03 | 1.12 | 0.03 | 58 | 1021.9 |
| 20260507160049 | 2 | 298 | 1.6 | 6.4 | 0.00 | 1.09 | 0.00 | 63 | 1021.9 |
| 20260507154547 | 1 | 298 | 1.6 | 4.8 | 0.00 | 1.09 | 0.00 | 66 | 1022.4 |
| 20260507153047 | 0 | 298 | 0.0 | 6.4 | 0.00 | 1.09 | 0.00 | 69 | 1022.6 |
| 20260507151541 | -1 | 298 | 0.0 | 4.8 | 0.00 | 1.09 | 0.00 | 71 | 1022.9 |
| 20260507150032 | -1 | 298 | 0.0 | 4.8 | 0.00 | 1.09 | 0.00 | 74 | 1022.8 |
| 20260507144530 | -2 | 298 | 1.6 | 4.8 | 0.00 | 1.09 | 0.00 | 76 | 1022.8 |
| 20260507143023 | -4 | 298 | 0.0 | 0.0 | 0.00 | 1.09 | 0.00 | 80 | 1022.8 |
| 20260507141519 | -5 | 298 | 0.0 | 3.2 | 0.00 | 1.09 | 0.00 | 83 | 1022.9 |
| 20260507140018 | -6 | 298 | 0.0 | 4.8 | 0.00 | 1.09 | 0.00 | 83 | 1023.0 |
| 20260507134527 | -7 | 298 | 3.2 | 6.4 | 0.00 | 1.09 | 0.00 | 84 | 1022.9 |
| 20260507133013 | -8 | 298 | 0.0 | 3.2 | 0.00 | 1.09 | 0.00 | 84 | 1023.0 |
| 20260507131519 | -8 | 299 | 1.6 | 4.8 | 0.00 | 1.09 | 0.00 | 85 | 1022.9 |
| 20260507130011 | -9 | 299 | 4.8 | 8.0 | 0.00 | 1.09 | 0.00 | 85 | 1022.8 |
| 20260507124511 | -9 | 299 | 0.0 | 4.8 | 0.00 | 1.09 | 0.00 | 85 | 1022.6 |
| 20260507123018 | -10 | 299 | 1.6 | 6.4 | 0.00 | 1.09 | 0.00 | 85 | 1022.6 |
| 20260507121510 | -10 | 299 | 3.2 | 8.0 | 0.00 | 1.09 | 0.00 | 85 | 1022.7 |
| 20260507120008 | -10 | 299 | 0.0 | 4.8 | 0.00 | 1.09 | 0.00 | 85 | 1022.7 |
| 20260507114511 | -10 | 299 | 1.6 | 4.8 | 0.00 | 1.09 | 0.00 | 85 | 1022.7 |
| 20260507113006 | -10 | 299 | 0.0 | 4.8 | 0.00 | 1.09 | 0.00 | 85 | 1022.5 |
| 20260507111510 | -9 | 299 | 3.2 | 4.8 | 0.00 | 1.09 | 0.00 | 85 | 1022.2 |
| 20260507110002 | -9 | 299 | 1.6 | 4.8 | 0.00 | 1.09 | 0.00 | 85 | 1022.4 |
| 20260507104501 | -9 | 299 | 0.0 | 4.8 | 0.00 | 1.09 | 0.00 | 85 | 1022.5 |
| 20260507103059 | -9 | 299 | 0.0 | 4.8 | 0.00 | 1.09 | 0.00 | 84 | 1022.5 |
| 20260507101559 | -9 | 299 | 1.6 | 4.8 | 0.00 | 1.09 | 0.00 | 85 | 1022.7 |
| 20260507100054 | -8 | 299 | 0.0 | 3.2 | 0.00 | 1.09 | 0.00 | 85 | 1022.7 |
| 20260507094608 | -8 | 299 | 0.0 | 3.2 | 0.00 | 1.09 | 0.00 | 85 | 1022.8 |
| 20260507093058 | -8 | 299 | 0.0 | 3.2 | 0.00 | 1.09 | 0.00 | 85 | 1022.8 |
| 20260507091618 | -8 | 299 | 0.0 | 4.8 | 0.00 | 1.09 | 0.00 | 85 | 1022.7 |
| 20260507090100 | -8 | 299 | 0.0 | 4.8 | 0.00 | 1.09 | 0.00 | 85 | 1022.8 |
| 20260507084553 | -8 | 299 | 0.0 | 4.8 | 0.00 | 1.09 | 0.00 | 85 | 1022.8 |
| 20260507083046 | -8 | 299 | 3.2 | 6.4 | 0.00 | 1.09 | 0.00 | 85 | 1022.7 |
| 20260507081544 | -8 | 299 | 0.0 | 4.8 | 0.00 | 1.09 | 0.00 | 85 | 1022.8 |
| 20260507080041 | -8 | 299 | 0.0 | 4.8 | 0.00 | 1.09 | 0.00 | 85 | 1022.9 |
| 20260507074545 | -8 | 299 | 0.0 | 3.2 | 0.00 | 1.09 | 0.00 | 85 | 1023.0 |
| 20260507073037 | -8 | 299 | 0.0 | 3.2 | 0.00 | 1.09 | 0.00 | 85 | 1022.9 |
| 20260507071537 | -8 | 299 | 1.6 | 6.4 | 0.00 | 1.09 | 0.00 | 85 | 1022.9 |
| 20260507070036 | -8 | 299 | 3.2 | 6.4 | 0.00 | 1.09 | 0.00 | 85 | 1022.9 |
| 20260507064535 | -8 | 299 | 0.0 | 4.8 | 0.00 | 1.09 | 0.00 | 85 | 1023.0 |
| 20260507063029 | -7 | 299 | 0.0 | 1.6 | 0.00 | 1.09 | 0.00 | 85 | 1023.3 |
| 20260507061523 | -7 | 299 | 0.0 | 3.2 | 0.00 | 1.09 | 0.00 | 84 | 1023.3 |
| 20260507060025 | -7 | 299 | 0.0 | 4.8 | 0.00 | 1.09 | 1.09 | 85 | 1023.3 |
| 20260507054516 | -7 | 299 | 0.0 | 3.2 | 0.00 | 1.09 | 1.09 | 84 | 1023.1 |
| 20260507053014 | -6 | 299 | 0.0 | 3.2 | 0.00 | 1.09 | 1.09 | 83 | 1023.0 |
| 20260507051510 | -6 | 299 | 0.0 | 4.8 | 0.00 | 1.09 | 1.09 | 82 | 1022.9 |
| 20260507050010 | -6 | 299 | 1.6 | 3.2 | 0.00 | 1.09 | 1.09 | 82 | 1022.8 |
| 20260507044506 | -5 | 299 | 0.0 | 3.2 | 0.00 | 1.09 | 1.09 | 81 | 1022.8 |